Location: Ajisawe
(8.4333°N, 4.3833°E)
Time: 23:12:56
(UTC+00:00)

Vanguard 1 Rocket - Pass Details

Date: 25 April 2021
Orbit: 652 x 4224 km, 34.3° (Epoch: 10 May)

Event Time Altitude Azimuth Distance (km) Brightness Sun altitude
Rises 18:48:25 0° 303° (WNW) 3,187 11.7 -14.3°
Reaches altitude 10° 18:50:23 10° 303° (WNW) 2,421 10.8 -14.8°
Maximum altitude 18:55:54 83° 215° (SW) 1,142 7.8 -16.1°
Enters shadow 19:02:47 20° 129° (SE) 3,130 9.6 -17.7°
